Tracking 20475 objects as of 27-Feb-2020
HD Live streaming from Space Station
objects crossing your sky now

COSMOS 2380 (GLONASS)

Track COSMOS 2380 (GLONASS) now!
COSMOS 2380 (GLONASS) is classified as:


NORAD ID: 26989
Int'l Code: 2001-053C
Perigee: 19,125.8 km
Apogee: 19,148.1 km
Inclination: 63.0 °
Period: 675.7 minutes
Semi major axis: 25507 km
RCS: 1.9952 m2 (large)
Launch date: December 1, 2001
Source: Commonwealth of Independent States (former USSR) (CIS)
Launch site: TYURATAM MISSILE AND SPACE COMPLEX (TTMTR)
aabbcc
Your satellite tracking list
Your tracking list is empty




NASA's NSSDC Master Catalog

Two Line Element Set (TLE):
1 26989U 01053C   20056.73273955 +.00000013 +00000-0 +00000-0 0  9991
2 26989 063.0179 139.8937 0004362 013.3006 162.1570 02.13103284141923
Source of the keplerian elements: AFSPC